TimeEDT,TemperatureF,Dew PointF,Humidity,Sea Level PressureIn,VisibilityMPH,Wind Direction,Wind SpeedMPH,Gust SpeedMPH,PrecipitationIn,Events,Conditions,WindDirDegrees,DateUTC
12:15 AM,39.2,35.6,87,29.91,10.0,WSW,4.6,-,N/A,,Clear,240,2013-05-12 04:15:00
12:36 AM,39.2,35.6,87,29.91,10.0,SW,5.8,-,N/A,,Scattered Clouds,230,2013-05-12 04:36:00
12:56 AM,39.2,35.6,87,29.91,10.0,SW,6.9,-,N/A,,Scattered Clouds,230,2013-05-12 04:56:00
1:16 AM,39.2,35.6,87,29.92,10.0,SW,5.8,-,N/A,,Clear,230,2013-05-12 05:16:00
1:36 AM,37.4,35.6,93,29.92,10.0,SW,6.9,-,N/A,,Clear,230,2013-05-12 05:36:00
1:56 AM,37.4,35.6,93,29.92,10.0,SW,6.9,-,N/A,,Clear,230,2013-05-12 05:56:00
2:16 AM,37.4,35.6,93,29.91,10.0,WSW,5.8,-,N/A,,Clear,250,2013-05-12 06:16:00
2:36 AM,37.4,35.6,93,29.91,10.0,WSW,5.8,-,N/A,,Clear,250,2013-05-12 06:36:00
2:51 AM,37.4,35.6,93,29.91,10.0,WSW,6.9,-,N/A,,Clear,240,2013-05-12 06:51:00
3:11 AM,37.4,35.6,93,29.90,10.0,WSW,6.9,-,N/A,,Clear,240,2013-05-12 07:11:00
3:31 AM,37.4,35.6,93,29.90,10.0,WSW,8.1,-,N/A,,Clear,250,2013-05-12 07:31:00
3:52 AM,37.4,35.6,93,29.90,10.0,WSW,6.9,-,N/A,,Clear,250,2013-05-12 07:52:00
4:12 AM,37.4,35.6,93,29.90,10.0,WSW,8.1,-,N/A,,Clear,240,2013-05-12 08:12:00
4:32 AM,37.4,35.6,93,29.90,10.0,WSW,8.1,-,N/A,,Clear,240,2013-05-12 08:32:00
4:52 AM,37.4,35.6,93,29.89,10.0,WSW,9.2,-,N/A,,Clear,250,2013-05-12 08:52:00
5:32 AM,39.2,35.6,87,29.89,10.0,WSW,11.5,-,N/A,,Clear,250,2013-05-12 09:32:00
5:52 AM,39.2,35.6,87,29.89,10.0,WSW,13.8,18.4,N/A,,Clear,250,2013-05-12 09:52:00
6:12 AM,39.2,35.6,87,29.89,10.0,WSW,9.2,-,N/A,,Clear,250,2013-05-12 10:12:00
6:32 AM,39.2,35.6,87,29.90,10.0,West,8.1,-,N/A,,Clear,260,2013-05-12 10:32:00
6:53 AM,39.2,35.6,87,29.91,10.0,West,11.5,-,N/A,,Mostly Cloudy,270,2013-05-12 10:53:00
7:13 AM,39.2,35.6,87,29.91,10.0,West,15.0,19.6,N/A,,Scattered Clouds,280,2013-05-12 11:13:00
7:33 AM,41.0,35.6,81,29.91,10.0,West,12.7,17.3,N/A,,Mostly Cloudy,280,2013-05-12 11:33:00
7:53 AM,41.0,33.8,76,29.92,10.0,West,11.5,-,N/A,,Overcast,280,2013-05-12 11:53:00
8:13 AM,42.8,32.0,66,29.92,10.0,WNW,16.1,20.7,N/A,,Overcast,290,2013-05-12 12:13:00
8:33 AM,42.8,33.8,70,29.92,10.0,West,18.4,24.2,N/A,,Overcast,280,2013-05-12 12:33:00
8:53 AM,42.8,32.0,66,29.93,10.0,WNW,17.3,24.2,N/A,,Overcast,300,2013-05-12 12:53:00
9:13 AM,42.8,32.0,66,29.94,10.0,WNW,19.6,25.3,N/A,,Overcast,300,2013-05-12 13:13:00
9:33 AM,42.8,30.2,61,29.94,10.0,WNW,19.6,26.5,N/A,,Overcast,300,2013-05-12 13:33:00
9:53 AM,44.6,30.2,57,29.95,10.0,WNW,20.7,27.6,N/A,,Overcast,290,2013-05-12 13:53:00
10:14 AM,44.6,30.2,57,29.94,10.0,WNW,26.5,32.2,N/A,,Overcast,290,2013-05-12 14:14:00
10:34 AM,44.6,30.2,57,29.95,10.0,WNW,21.9,27.6,N/A,,Overcast,300,2013-05-12 14:34:00
10:54 AM,44.6,30.2,57,29.95,10.0,WNW,19.6,25.3,N/A,,Overcast,290,2013-05-12 14:54:00
11:14 AM,44.6,32.0,61,29.96,10.0,NW,17.3,23.0,N/A,,Overcast,310,2013-05-12 15:14:00
11:34 AM,46.4,30.2,53,29.97,10.0,WNW,18.4,25.3,N/A,,Overcast,290,2013-05-12 15:34:00
11:54 AM,46.4,30.2,53,29.97,10.0,West,19.6,28.8,N/A,,Overcast,280,2013-05-12 15:54:00
12:14 PM,46.4,30.2,53,29.97,10.0,West,18.4,25.3,N/A,,Overcast,280,2013-05-12 16:14:00
12:34 PM,46.4,30.2,53,29.96,10.0,West,17.3,25.3,N/A,,Overcast,280,2013-05-12 16:34:00
12:54 PM,48.2,30.2,50,29.97,10.0,West,17.3,26.5,N/A,,Overcast,270,2013-05-12 16:54:00
1:14 PM,48.2,30.2,50,29.97,10.0,WNW,15.0,27.6,N/A,,Overcast,290,2013-05-12 17:14:00
1:35 PM,48.2,30.2,50,29.97,10.0,West,19.6,26.5,N/A,,Overcast,280,2013-05-12 17:35:00
1:55 PM,50.0,28.4,43,29.97,10.0,West,17.3,26.5,N/A,,Mostly Cloudy,280,2013-05-12 17:55:00
2:15 PM,48.2,28.4,46,29.97,10.0,West,17.3,25.3,N/A,,Overcast,270,2013-05-12 18:15:00
2:35 PM,51.8,30.2,44,29.97,10.0,WSW,18.4,-,N/A,,Overcast,250,2013-05-12 18:35:00
2:55 PM,50.0,26.6,40,29.97,10.0,WNW,19.6,27.6,N/A,,Mostly Cloudy,290,2013-05-12 18:55:00
3:15 PM,50.0,28.4,43,29.98,10.0,West,23.0,31.1,N/A,,Overcast,280,2013-05-12 19:15:00
3:35 PM,50.0,28.4,43,29.98,10.0,WNW,21.9,27.6,N/A,,Overcast,290,2013-05-12 19:35:00
3:55 PM,50.0,28.4,43,29.98,10.0,WNW,19.6,26.5,N/A,,Overcast,290,2013-05-12 19:55:00
4:15 PM,51.8,28.4,41,29.98,10.0,West,23.0,27.6,N/A,,Overcast,270,2013-05-12 20:15:00
4:35 PM,51.8,28.4,41,29.99,10.0,West,20.7,29.9,N/A,,Overcast,280,2013-05-12 20:35:00
4:56 PM,50.0,26.6,40,29.99,10.0,West,25.3,32.2,N/A,,Mostly Cloudy,280,2013-05-12 20:56:00
5:16 PM,48.2,28.4,46,30.00,10.0,WNW,24.2,33.4,N/A,,Overcast,300,2013-05-12 21:16:00
5:36 PM,48.2,28.4,46,30.00,10.0,West,21.9,26.5,N/A,,Overcast,280,2013-05-12 21:36:00
5:56 PM,48.2,26.6,43,30.01,10.0,West,21.9,27.6,N/A,,Overcast,280,2013-05-12 21:56:00
6:16 PM,48.2,28.4,46,30.02,10.0,WNW,18.4,29.9,N/A,,Overcast,300,2013-05-12 22:16:00
6:36 PM,46.4,26.6,46,30.02,10.0,WNW,20.7,26.5,N/A,,Overcast,300,2013-05-12 22:36:00
6:56 PM,46.4,26.6,46,30.03,10.0,WNW,17.3,28.8,N/A,,Overcast,290,2013-05-12 22:56:00
7:11 PM,46.4,26.6,46,30.03,10.0,WNW,18.4,25.3,N/A,,Overcast,290,2013-05-12 23:11:00
7:31 PM,46.4,26.6,46,30.03,10.0,WNW,12.7,23.0,N/A,,Overcast,290,2013-05-12 23:31:00
7:52 PM,46.4,26.6,46,30.04,10.0,WNW,17.3,25.3,N/A,,Overcast,300,2013-05-12 23:52:00
8:12 PM,44.6,26.6,49,30.04,10.0,WNW,16.1,23.0,N/A,,Overcast,300,2013-05-13 00:12:00
8:32 PM,44.6,24.8,46,30.05,10.0,WNW,13.8,25.3,N/A,,Overcast,290,2013-05-13 00:32:00
8:52 PM,44.6,24.8,46,30.05,10.0,WNW,13.8,25.3,N/A,,Overcast,300,2013-05-13 00:52:00
9:12 PM,44.6,24.8,46,30.06,10.0,WNW,11.5,-,N/A,,Scattered Clouds,300,2013-05-13 01:12:00
9:32 PM,42.8,26.6,53,30.07,10.0,WNW,11.5,18.4,N/A,,Clear,300,2013-05-13 01:32:00
9:52 PM,42.8,24.8,49,30.07,10.0,WNW,9.2,-,N/A,,Clear,300,2013-05-13 01:52:00
10:12 PM,41.0,26.6,57,30.08,10.0,WNW,4.6,-,N/A,,Clear,290,2013-05-13 02:12:00
10:32 PM,39.2,26.6,61,30.08,10.0,West,4.6,-,N/A,,Clear,280,2013-05-13 02:32:00
10:53 PM,39.2,26.6,61,30.09,10.0,Calm,Calm,-,N/A,,Clear,0,2013-05-13 02:53:00
11:13 PM,37.4,28.4,70,30.09,10.0,Calm,Calm,-,N/A,,Clear,0,2013-05-13 03:13:00
11:33 PM,37.4,28.4,70,30.09,10.0,West,3.5,-,N/A,,Clear,280,2013-05-13 03:33:00
11:53 PM,37.4,28.4,70,30.09,10.0,WSW,3.5,-,N/A,,Clear,250,2013-05-13 03:53:00